Regional Weather Roundup
Issued by NWS

Home | Current Version | Previous Version | Text Only | Print | Product List | Glossary On
Versions: 1 2 3 4 5 6 7 8 9 10 11 12 13 14 15 16 17 18 19 20 21 22 23 24 25 26 27 28 29 30 31 32 33 34 35 36 37 38 39 40 41 42 43 44 45 46 47 48 49 50
000
ASUS44 KLIX 031611
RWRLA
LOUISIANA WEATHER ROUNDUP
NATIONAL WEATHER SERVICE NEW ORLEANS LA
1100 AM CDT FRI JUL 03 2015

NOTE: "FAIR" INDICATES FEW OR NO CLOUDS BELOW 12,000 FEET WITH NO
      SIGNIFICANT WEATHER AND/OR OBSTRUCTIONS TO VISIBILITY.
      SKY/WX - SKY CONDITION AND SIGNIFICANT WEATHER.
      TMP - AIR TEMPERATURE.    DP   - DEWPOINT TEMPERATURE.
      RH  - RELATIVE HUMIDITY.  PRES - PRESSURE.
      HX  - HEAT INDEX.         WCI  - WIND CHILL INDEX.

*  THESE STATIONS ARE NOT NWS OR FAA STATIONS AND ARE NOT UNDER
   NWS QUALITY CONTROL.

LAZ040-048-061>063-065-066-069-031700-
SOUTHEAST LOUISIANA

CITY           SKY/WX    TMP DP  RH WIND       PRES   REMARKS
N.O. AUDUBON     N/A     93  80  64 MISG        N/A  HX 111
N.O. INTL ARPT MOSUNNY   90  72  55 SW10      30.05R HX  97
N.O. LAKEFRONT MOSUNNY   92  72  51 SW8       30.06R HX  99
N.O. DOWNTOWN* FAIR      91  75  59 S6        30.06S HX 102
RESERVE*       FAIR      89  75  63 W6        30.05S HX  99
SLIDELL        SUNNY     88  76  67 VRB7      30.05S HX  99
BATON ROUGE    MOSUNNY   88  75  65 VRB3      30.04S HX  97
BOOTHVILLE     PTSUNNY   87  78  74 SW6       30.07R HX 100
BELLE CHASSE   MOSUNNY   87  74  64 SW8       30.05R HX  95
BOGALUSA*        N/A     88  74  62 SW9       30.07S HX  96
GALLIANO*      MOSUNNY   89  74  60 MISG      30.06R HX  98
NEW ROADS*     FAIR     N/A N/A N/A SW6       30.05S
GONZALES*      FAIR      88  76  66 SW6       30.04S HX  98
HAMMOND*       MOSUNNY   90  72  55 SW6       30.07S HX  96
HOUMA*         MOSUNNY   88  75  66 SW8       30.05R HX  97
PORT FOURCHON* MOSUNNY   86  75  70 S9        30.07R HX  95

$$

LAZ041-044-053-054-031700-
SOUTHWEST LOUISIANA

CITY           SKY/WX    TMP DP  RH WIND       PRES   REMARKS
LAKE CHARLES   MOSUNNY   88  76  67 MISG      30.02S HX  99
LAFAYETTE      PTSUNNY   88  75  65 S5        30.04R HX  97
PATTERSON      MOSUNNY   86  73  66 SW8       30.06S
SALT POINT       N/A     87  78  74 VRB5      30.04R HX 100
NEW IBERIA     MOSUNNY   88  75  66 W6          N/A  HX  97
CHENAULT AIRPK NOT AVBL

$$

LAZ027-028-031700-
CENTRAL LOUISIANA

CITY           SKY/WX    TMP DP  RH WIND       PRES   REMARKS
FORT POLK      MOSUNNY   86  73  65 S12       30.02S
ALEXANDRIA INT MOSUNNY   86  76  71 SW7       30.00F HX  96
ALEXANDRIA     PTSUNNY   89  74  60 SW9G20    30.02F HX  98

$$

LAZ001-002-031700-
NORTHWEST LOUISIANA

CITY           SKY/WX    TMP DP  RH WIND       PRES   REMARKS
SHREVEPORT     PTSUNNY   85  73  67 SW15G24   29.99S
BARKSDALE AFB  PTSUNNY   86  73  63 SW16      29.98F
DTN SHREVEPORT PTSUNNY   85  72  65 SW16      29.99S

$$

LAZ014-016-031700-
NORTHEAST LOUISIANA

CITY           SKY/WX    TMP DP  RH WIND       PRES   REMARKS
MONROE         CLOUDY    83  76  79 SW10      30.01S
TALLULAH       PTSUNNY   84  74  71 VRB6      30.02R

$$




USA.gov is the U.S. government's official web portal to all federal, state and local government web resources and services.